sat.trackr.live / text

‹ back to catalog

STARLINK-34908

NORAD 65329 · 2025-189G

PAYLOAD ACTIVE UNKNOWN

§ Identity

Operator
Country
US
Launch date
2025-08-27
Launch site
AFETR
Launch vehicle
Mass (kg)
RCS (m²)

Purposes: comms

External: N2YO · Heavens-Above · Gunter

§ Orbital elements

Epoch: 2026-05-25T03:39:02.251296Z

Period
94.11 min
Inclination
53.1578°
Eccentricity
0.0001177
Mean motion
15.30204624 rev/d
Perigee alt
474.4 km
Apogee alt
476.0 km
Semi-major
6,853.3 km
B*
3.9416e-4
RAAN
211.5740°
Arg perigee
84.9071°
Mean anomaly
275.2064°
Rev number
4,281

§ Raw data

STARLINK-349081 65329U 25189G   26145.15210939  .00011334  00000+0  39416-3 0  99952 65329  53.1578 211.5740 0001177  84.9071 275.2064 15.30204624 42819

JSON: /api/v1/satellites/65329 · /tle

For live sub-satellite position, see the globe view (requires WebGL).

§ Visibility from observer

Set your observer location to see the next 7 days of passes ≥ 10°. The values pass through the URL so the page stays shareable.

No JS? Fill the form by hand. The geolocation button needs JavaScript.